Location: Newark
(22.3060°N, 114.2134°E)
Time: 20:06:25
(UTC+00:00)

Vanguard 2 - Pass Details

Date: 05 August 2021
Orbit: 553 x 2937 km, 32.9° (Epoch: 27 September)

Event Time Altitude Azimuth Distance (km) Brightness Sun altitude
Rises 21:38:00 0° 298° (WNW) 2,713 10.0 -5.0°
Reaches altitude 10° 21:40:30 10° 316° (NW) 1,864 9.3 -4.4°
Maximum altitude 21:43:44 22° 9° (N) 1,386 9.3 -3.7°
Drops below altitude 10° 21:47:41 10° 60° (ENE) 2,297 11.8 -2.9°
Sets 21:51:10 0° 75° (ENE) 3,560 14.2 -2.1°
